sat.trackr.live / text

‹ back to catalog

STARLINK-34824

NORAD 65042 · 2025-161AD

PAYLOAD ACTIVE UNKNOWN

§ Identity

Operator
Country
US
Launch date
2025-07-30
Launch site
AFWTR
Launch vehicle
Mass (kg)
RCS (m²)

Purposes: comms

External: N2YO · Heavens-Above · Gunter

§ Orbital elements

Epoch: 2026-09-20T01:48:54.527040Z

Period
93.85 min
Inclination
53.1575°
Eccentricity
0.0001691
Mean motion
15.34407113 rev/d
Perigee alt
461.5 km
Apogee alt
463.8 km
Semi-major
6,840.8 km
B*
4.2740e-4
RAAN
107.5781°
Arg perigee
72.5262°
Mean anomaly
287.5926°
Rev number
6,404

§ Raw data

STARLINK-348241 65042U 25161AD  26263.07563110  .00014094  00000+0  42740-3 0  99912 65042  53.1575 107.5781 0001691  72.5262 287.5926 15.34407113 64047

JSON: /api/v1/satellites/65042 · /tle

For live sub-satellite position, see the globe view (requires WebGL).

§ Visibility from observer

Set your observer location to see the next 7 days of passes ≥ 10°. The values pass through the URL so the page stays shareable.

No JS? Fill the form by hand. The geolocation button needs JavaScript.